ACA46 CYLW-CYVR

Flight info

Callsign ACA46
Flight time 0h 31m
Altitude 26000
Route MRYT6 MERYT BOOTH CANUC6
Aircraft A321/M-SDE3FGHIRWY/LB1

Departure

Time 2026-05-03 20:33
Airport Kelowna International Airport (CYLW)

Arrival

Time 2026-05-03 21:05
Airport Vancouver International Airport (CYVR)
Time Latitude Longitude Altitude Speed Heading
2026-05-03 20:15 49.94975 -119.38004 1371 ft 0 kts 326°
2026-05-03 20:28 49.94974 -119.38004 1408 ft 2 kts 326°
2026-05-03 20:28 49.94962 -119.37992 1370 ft 4 kts 326°
2026-05-03 20:28 49.94940 -119.37968 1370 ft 4 kts 326°
2026-05-03 20:29 49.94917 -119.37945 1369 ft 4 kts 326°
2026-05-03 20:29 49.94900 -119.37927 1368 ft 0 kts 326°
2026-05-03 20:31 49.94900 -119.37928 1368 ft 1 kts 326°
2026-05-03 20:31 49.94939 -119.37936 1369 ft 7 kts 33°
2026-05-03 20:31 49.94955 -119.37848 1371 ft 13 kts 123°
2026-05-03 20:31 49.94842 -119.37811 1369 ft 8 kts 173°
2026-05-03 20:32 49.94828 -119.37807 1369 ft 1 kts 167°
2026-05-03 20:32 49.94815 -119.37802 1368 ft 5 kts 165°
2026-05-03 20:32 49.94767 -119.37718 1368 ft 12 kts 97°
2026-05-03 20:32 49.94818 -119.37670 1369 ft 8 kts 358°
2026-05-03 20:33 49.94915 -119.37683 1372 ft 36 kts 354°
2026-05-03 20:33 49.95409 -119.37759 1376 ft 103 kts 355°
2026-05-03 20:33 49.96280 -119.37876 1439 ft 146 kts 354°
2026-05-03 20:33 49.97242 -119.37974 2168 ft 134 kts 352°
2026-05-03 20:34 49.98170 -119.38142 2811 ft 135 kts 351°
2026-05-03 20:34 49.99117 -119.38323 3314 ft 143 kts 349°
2026-05-03 20:34 50.00174 -119.38523 3585 ft 163 kts 349°
2026-05-03 20:34 50.01362 -119.38850 3793 ft 184 kts 345°
2026-05-03 20:35 50.02663 -119.39494 3979 ft 207 kts 340°
2026-05-03 20:35 50.04091 -119.40277 4314 ft 226 kts 340°
2026-05-03 20:35 50.05607 -119.41110 4974 ft 235 kts 341°
2026-05-03 20:35 50.07164 -119.41958 5733 ft 236 kts 340°
2026-05-03 20:36 50.08672 -119.42769 6765 ft 230 kts 340°
2026-05-03 20:36 50.10194 -119.43577 7626 ft 232 kts 340°
2026-05-03 20:36 50.11726 -119.44380 8491 ft 233 kts 341°
2026-05-03 20:36 50.13284 -119.45193 9295 ft 238 kts 341°
2026-05-03 20:37 50.14856 -119.46192 9840 ft 255 kts 326°
2026-05-03 20:37 50.16064 -119.48344 10130 ft 280 kts 295°
2026-05-03 20:37 50.16387 -119.51456 10388 ft 308 kts 266°
2026-05-03 20:37 50.16033 -119.54890 10590 ft 333 kts 260°
2026-05-03 20:38 50.15502 -119.58544 10756 ft 357 kts 258°
2026-05-03 20:38 50.14882 -119.62363 10996 ft 377 kts 257°
2026-05-03 20:38 50.14217 -119.66368 11551 ft 385 kts 257°
2026-05-03 20:38 50.13554 -119.70451 12147 ft 392 kts 259°
2026-05-03 20:39 50.12905 -119.74603 12811 ft 397 kts 259°
2026-05-03 20:39 50.12268 -119.78816 13445 ft 402 kts 260°
2026-05-03 20:39 50.11636 -119.83087 14019 ft 407 kts 259°
2026-05-03 20:39 50.11000 -119.87401 14621 ft 410 kts 259°
2026-05-03 20:40 50.10358 -119.91739 15237 ft 412 kts 261°
2026-05-03 20:40 50.09708 -119.96088 15819 ft 414 kts 260°
2026-05-03 20:40 50.09051 -120.00473 16403 ft 417 kts 260°
2026-05-03 20:40 50.08398 -120.04826 16993 ft 420 kts 260°
2026-05-03 20:41 50.07730 -120.09262 17561 ft 422 kts 258°
2026-05-03 20:41 50.07053 -120.13726 18129 ft 425 kts 258°
2026-05-03 20:41 50.06364 -120.18227 18607 ft 429 kts 259°
2026-05-03 20:41 50.05666 -120.22760 19086 ft 432 kts 258°
2026-05-03 20:42 50.04960 -120.27325 19557 ft 435 kts 259°
2026-05-03 20:42 50.04249 -120.31921 20043 ft 438 kts 258°
2026-05-03 20:42 50.03532 -120.36550 20507 ft 442 kts 259°
2026-05-03 20:42 50.02810 -120.41208 20969 ft 444 kts 258°
2026-05-03 20:43 50.02093 -120.45834 21442 ft 447 kts 258°
2026-05-03 20:43 50.01362 -120.50540 21870 ft 450 kts 259°
2026-05-03 20:43 50.00623 -120.55286 22305 ft 453 kts 258°
2026-05-03 20:43 49.99877 -120.60064 22722 ft 457 kts 258°
2026-05-03 20:44 49.99123 -120.64880 23141 ft 460 kts 258°
2026-05-03 20:44 49.98361 -120.69729 23575 ft 464 kts 258°
2026-05-03 20:44 49.97592 -120.74609 23931 ft 467 kts 258°
2026-05-03 20:44 49.96814 -120.79516 24297 ft 469 kts 258°
2026-05-03 20:45 49.96027 -120.84445 24664 ft 471 kts 258°
2026-05-03 20:45 49.95232 -120.89394 25044 ft 473 kts 258°
2026-05-03 20:45 49.94342 -120.94333 25406 ft 478 kts 252°
2026-05-03 20:45 49.93031 -120.99019 25764 ft 483 kts 244°
2026-05-03 20:46 49.91347 -121.03543 25980 ft 485 kts 241°
2026-05-03 20:46 49.89641 -121.08015 25871 ft 478 kts 241°
2026-05-03 20:46 49.87949 -121.12444 25615 ft 479 kts 241°
2026-05-03 20:46 49.86252 -121.16886 25371 ft 479 kts 241°
2026-05-03 20:47 49.84555 -121.21333 25118 ft 480 kts 241°
2026-05-03 20:47 49.82857 -121.25782 24878 ft 480 kts 241°
2026-05-03 20:47 49.81154 -121.30231 24635 ft 480 kts 241°
2026-05-03 20:47 49.79447 -121.34676 24408 ft 481 kts 240°
2026-05-03 20:48 49.77735 -121.39122 24159 ft 482 kts 240°
2026-05-03 20:48 49.76040 -121.43513 23737 ft 481 kts 240°
2026-05-03 20:48 49.74318 -121.47971 22473 ft 486 kts 240°
2026-05-03 20:48 49.72593 -121.52433 21624 ft 480 kts 240°
2026-05-03 20:49 49.70888 -121.56839 20768 ft 475 kts 240°
2026-05-03 20:49 49.69199 -121.61199 19972 ft 470 kts 240°
2026-05-03 20:49 49.67527 -121.65500 19118 ft 466 kts 240°
2026-05-03 20:49 49.65870 -121.69749 18381 ft 460 kts 240°
2026-05-03 20:50 49.64229 -121.73954 17564 ft 455 kts 240°
2026-05-03 20:50 49.62610 -121.78101 16824 ft 448 kts 240°
2026-05-03 20:50 49.61006 -121.82206 16056 ft 443 kts 240°
2026-05-03 20:50 49.59446 -121.86196 15279 ft 439 kts 240°
2026-05-03 20:51 49.57882 -121.90187 14587 ft 432 kts 239°
2026-05-03 20:51 49.56333 -121.94125 13928 ft 427 kts 239°
2026-05-03 20:51 49.54807 -121.97988 13489 ft 414 kts 239°
2026-05-03 20:51 49.53342 -122.01688 13354 ft 395 kts 239°
2026-05-03 20:52 49.51942 -122.05227 13218 ft 379 kts 239°
2026-05-03 20:52 49.50597 -122.08611 13084 ft 363 kts 239°
2026-05-03 20:52 49.49299 -122.11850 12956 ft 349 kts 239°
2026-05-03 20:52 49.48045 -122.14959 12827 ft 337 kts 239°
2026-05-03 20:53 49.46831 -122.17969 12696 ft 326 kts 239°
2026-05-03 20:53 49.45664 -122.20886 12567 ft 315 kts 239°
2026-05-03 20:53 49.44557 -122.23672 12444 ft 304 kts 240°
2026-05-03 20:53 49.43474 -122.26401 12302 ft 294 kts 239°
2026-05-03 20:54 49.42422 -122.29055 12095 ft 287 kts 239°
2026-05-03 20:54 49.40349 -122.34268 11885 ft 285 kts 237°
2026-05-03 20:54 49.39101 -122.36643 11540 ft 289 kts 229°
2026-05-03 20:55 49.37767 -122.38964 11173 ft 289 kts 229°
2026-05-03 20:55 49.36443 -122.41251 10866 ft 285 kts 229°
2026-05-03 20:55 49.35123 -122.43530 10495 ft 286 kts 229°
2026-05-03 20:55 49.33817 -122.45762 10167 ft 284 kts 228°
2026-05-03 20:56 49.32502 -122.47999 9826 ft 282 kts 229°
2026-05-03 20:56 49.31189 -122.50232 9392 ft 281 kts 229°
2026-05-03 20:56 49.29884 -122.52449 9013 ft 280 kts 228°
2026-05-03 20:56 49.28582 -122.54656 8636 ft 279 kts 228°
2026-05-03 20:57 49.27290 -122.56847 8291 ft 275 kts 228°
2026-05-03 20:57 49.26011 -122.59023 7913 ft 274 kts 228°
2026-05-03 20:57 49.24738 -122.61189 7567 ft 272 kts 229°
2026-05-03 20:57 49.23477 -122.63338 7277 ft 271 kts 228°
2026-05-03 20:58 49.22227 -122.65469 7066 ft 265 kts 228°
2026-05-03 20:58 49.21023 -122.67532 6929 ft 255 kts 231°
2026-05-03 20:58 49.20059 -122.69729 6696 ft 251 kts 239°
2026-05-03 20:58 49.19138 -122.72027 6149 ft 259 kts 238°
2026-05-03 20:59 49.18163 -122.74441 5450 ft 274 kts 238°
2026-05-03 20:59 49.17143 -122.76965 4856 ft 281 kts 238°
2026-05-03 20:59 49.16272 -122.79535 4611 ft 261 kts 255°
2026-05-03 20:59 49.16134 -122.82152 4357 ft 240 kts 277°
2026-05-03 21:00 49.16395 -122.84619 4055 ft 232 kts 281°
2026-05-03 21:00 49.16591 -122.86212 3845 ft 229 kts 281°
2026-05-03 21:00 49.16968 -122.89358 3438 ft 219 kts 280°
2026-05-03 21:00 49.17227 -122.91574 3165 ft 206 kts 280°
2026-05-03 21:01 49.17468 -122.93636 2908 ft 194 kts 280°
2026-05-03 21:01 49.17699 -122.95618 2671 ft 185 kts 280°
2026-05-03 21:01 49.17918 -122.97507 2428 ft 176 kts 280°
2026-05-03 21:01 49.18129 -122.99323 2205 ft 171 kts 280°
2026-05-03 21:02 49.18332 -123.01071 1997 ft 162 kts 279°
2026-05-03 21:02 49.18518 -123.02672 1805 ft 145 kts 280°
2026-05-03 21:02 49.18688 -123.04146 1600 ft 139 kts 279°
2026-05-03 21:02 49.18855 -123.05593 1423 ft 138 kts 278°
2026-05-03 21:03 49.19022 -123.07041 1240 ft 138 kts 279°
2026-05-03 21:03 49.19187 -123.08474 1051 ft 136 kts 278°
2026-05-03 21:03 49.19349 -123.09875 872 ft 132 kts 279°
2026-05-03 21:03 49.19505 -123.11232 692 ft 130 kts 281°
2026-05-03 21:04 49.19663 -123.12605 510 ft 130 kts 281°
2026-05-03 21:04 49.19817 -123.13963 318 ft 129 kts 281°
2026-05-03 21:04 49.19966 -123.15311 173 ft 128 kts 281°
2026-05-03 21:04 49.20117 -123.16634 28 ft 121 kts 282°
2026-05-03 21:05 49.20241 -123.17672 22 ft 61 kts 279°
2026-05-03 21:05 49.20304 -123.18193 26 ft 45 kts 281°
2026-05-03 21:05 49.20282 -123.18541 26 ft 10 kts 251°
2026-05-03 21:05 49.20261 -123.18637 24 ft 10 kts 251°
2026-05-03 21:06 49.20236 -123.18744 23 ft 11 kts 249°
2026-05-03 21:06 49.20222 -123.18800 23 ft 0 kts 249°
2026-05-03 21:06 49.20221 -123.18803 23 ft 1 kts 249°
2026-05-03 21:06 49.20219 -123.18812 23 ft 4 kts 249°
2026-05-03 21:07 49.20160 -123.18864 23 ft 11 kts 139°
2026-05-03 21:07 49.20118 -123.18770 23 ft 13 kts 165°
2026-05-03 21:07 49.20002 -123.18795 23 ft 19 kts 190°
2026-05-03 21:07 49.19882 -123.18822 23 ft 18 kts 178°
2026-05-03 21:08 49.19839 -123.18703 23 ft 13 kts 102°
2026-05-03 21:08 49.19799 -123.18591 23 ft 15 kts 168°
2026-05-03 21:08 49.19709 -123.18621 23 ft 12 kts 187°
2026-05-03 21:08 49.19658 -123.18580 23 ft 4 kts 147°
2026-05-03 21:09 49.19652 -123.18575 26 ft 0 kts 147°
2026-05-03 21:09 49.19648 -123.18571 23 ft 2 kts 147°
2026-05-03 21:09 49.19635 -123.18557 25 ft 2 kts 146°
2026-05-03 21:09 49.19632 -123.18555 25 ft 0 kts 146°